Montague, CA

2:53 AM PDT on March 26, 2017 (GMT -0700)
Siskiyou County

Weather History for KSIY - July, 2013

Change the Weather History Date:

Friday, July 5, 2013

  Actual Average Record
Temperature  
Mean Temperature 73 °F 71 °F  
Max Temperature 90 °F 88 °F 105 °F (2007)
Min Temperature 55 °F 53 °F 38 °F (1986)
Degree Days  
Heating Degree Days 0 0  
Month to date heating degree days 0 1  
Since 1 June heating degree days 70 94  
Since 1 July heating degree days 0 1  
Cooling Degree Days 8 6  
Month to date cooling degree days 72 27  
Year to date cooling degree days 211 98  
Since 1 June cooling degree days 199 85  
Growing Degree Days 22 (Base 50)    
Moisture  
Dew Point 41 °F    
Average Humidity 36    
Maximum Humidity 66    
Minimum Humidity 12    
Precipitation  
Precipitation 0.00 in 0.01 in 1.15 in (1970)
Month to date precipitation T 0.05  
Year to date precipitation 3.80 10.26  
Sea Level Pressure  
Sea Level Pressure 29.85 in    
Wind  
Wind Speed 10 mph (North)    
Max Wind Speed 20 mph    
Max Gust Speed 31 mph    
Visibility 10 miles    
Events      
T = Trace of Precipitation, MM = Missing Value Source: NWS Daily Summary

Daily Weather History Graph

Daily Weather History Graph

Search for Another Location

Airport or City:

Trip Planner

Search our weather history database for the weather conditions in past years. The results will help you decide how hot, cold, wet, or windy it might be!

Date:

Astronomy

Jul. 05, 2013 Rise Set
Actual Time 5:41 AM PDT 8:47 PM PDT
Civil Twilight 5:07 AM PDT 9:21 PM PDT
Nautical Twilight 4:24 AM PDT 10:04 PM PDT
Astronomical Twilight 3:32 AM PDT 10:55 PM PDT
Moon 3:45 AM PDT (7/5) 6:46 PM PDT (7/5)
Length of Visible Light 16h 13m
Length of Day
15h 06m
Waning Crescent, 6% of the Moon is Illuminated
Jul 5
Waning Crescent
Jul 8
New
Jul 15
First Quarter
Jul 22
Full
Jul 29
Last Quarter

Hourly Weather History & Observations

Time (PDT) Temp. Dew Point Humidity Pressure Visibility Wind Dir Wind Speed Gust Speed Precip Events Conditions
12:53 AM 64.0 °F 41.0 °F 43% 29.90 in 10.0 mi North 9.2 mph - N/A   Clear
1:53 AM 63.0 °F 41.0 °F 45% 29.90 in 10.0 mi North 9.2 mph - N/A   Clear
2:53 AM 63.0 °F 42.1 °F 46% 29.89 in 10.0 mi NNW 10.4 mph - N/A   Clear
3:53 AM 60.1 °F 42.1 °F 51% 29.89 in 10.0 mi NNW 8.1 mph - N/A   Clear
4:53 AM 55.9 °F 43.0 °F 62% 29.90 in 10.0 mi North 8.1 mph - N/A   Clear
5:53 AM 55.9 °F 44.1 °F 64% 29.91 in 10.0 mi North 6.9 mph - N/A   Clear
6:53 AM 62.1 °F 46.0 °F 56% 29.91 in 10.0 mi North 5.8 mph - N/A   Clear
7:53 AM 64.0 °F 46.0 °F 52% 29.92 in 10.0 mi North 12.7 mph - N/A   Clear
8:53 AM 68.0 °F 46.0 °F 45% 29.91 in 10.0 mi North 9.2 mph - N/A   Clear
9:53 AM 72.0 °F 44.1 °F 37% 29.90 in 10.0 mi NNE 9.2 mph - N/A   Clear
10:53 AM 73.9 °F 44.1 °F 34% 29.89 in 10.0 mi NNE 8.1 mph - N/A   Clear
11:53 AM 80.1 °F 42.1 °F 26% 29.86 in 10.0 mi North 5.8 mph - N/A   Clear
12:53 PM 82.0 °F 39.9 °F 22% 29.85 in 10.0 mi Variable 4.6 mph - N/A   Clear
1:53 PM 86.0 °F 37.9 °F 18% 29.82 in 10.0 mi North 10.4 mph - N/A   Clear
2:53 PM 88.0 °F 36.0 °F 16% 29.80 in 10.0 mi NNE 11.5 mph 17.3 mph N/A   Clear
3:53 PM 89.1 °F 33.1 °F 14% 29.78 in 10.0 mi North 13.8 mph - N/A   Clear
4:53 PM 89.1 °F 30.9 °F 12% 29.77 in 10.0 mi North 15.0 mph - N/A   Clear
5:53 PM 87.1 °F 36.0 °F 16% 29.77 in 10.0 mi North 13.8 mph - N/A   Clear
6:53 PM 84.0 °F 35.1 °F 17% 29.77 in 10.0 mi North 17.3 mph - N/A   Clear
7:53 PM 80.1 °F 41.0 °F 25% 29.78 in 10.0 mi North 15.0 mph - N/A   Clear
8:53 PM 73.9 °F 42.1 °F 32% 29.81 in 10.0 mi North 11.5 mph - N/A   Clear
9:53 PM 70.0 °F 43.0 °F 38% 29.83 in 10.0 mi North 11.5 mph - N/A   Clear
10:53 PM 66.0 °F 43.0 °F 43% 29.84 in 10.0 mi North 9.2 mph - N/A   Clear
11:53 PM 64.9 °F 43.0 °F 45% 29.84 in 10.0 mi North 10.4 mph - N/A   Clear